Location: Newark
(7.0858°N, 171.3717°E)
Time: 07:11:18
(UTC+00:00)

Courier 1B - Pass Details

Date: 27 November 2020
Orbit: 962 x 1209 km, 28.3° (Epoch: 20 January)

Event Time Altitude Azimuth Distance (km) Brightness Sun altitude
Rises 21:19:49 0° 258° (WSW) 4,093 10.4 37.0°
Reaches altitude 10° 21:25:07 10° 228° (SW) 3,097 10.1 38.1°
Maximum altitude 21:27:44 12° 208° (SSW) 2,930 10.2 38.6°
Drops below altitude 10° 21:30:20 10° 188° (S) 3,049 10.5 39.1°
Sets 21:35:28 0° 158° (SSE) 3,949 11.3 40.2°
